Regional Weather Roundup
Issued by NWS Cleveland, OH

Home | Current Version | Previous Version | Text Only | Print | Product List | Glossary Off
Versions: 1 2 3 4 5 6 7 8 9 10 11 12 13 14 15 16 17 18 19 20 21 22 23 24 25 26 27 28 29 30 31 32 33 34 35 36 37 38 39 40 41 42 43 44 45 46 47 48 49 50

000
ASUS41 KCLE 030910
RWRCLE
OHIO REGIONAL WEATHER ROUNDUP
NATIONAL WEATHER SERVICE WILMINGTON, OH
500 AM EDT TUE MAY 03 2016

NOTE: "FAIR" INDICATES FEW OR NO CLOUDS BELOW 12,000 FEET WITH NO
SIGNIFICANT WEATHER AND/OR OBSTRUCTIONS TO VISIBILITY.

OHZ001>008-015>018-024>027-034-035-043-044-031000-
   NORTHWEST OHIO

CITY           SKY/WX    TMP DP  RH WIND       PRES   REMARKS
DEFIANCE       CLOUDY    47  46  97 CALM      29.94S FOG
FINDLAY        CLOUDY    49  42  77 N6        29.92F
TOLEDO EXPRESS FOG       45  44  97 CALM      29.94S VSB 1
TOLEDO EXEC    CLOUDY    47  44  90 CALM      29.95S FOG
LIMA           CLOUDY    47  45  93 N6        29.92F
$$

OHZ009>014-019>023-028>033-038-089-031000-
   NORTHEAST OHIO

CITY           SKY/WX    TMP DP  RH WIND       PRES   REMARKS
CLE-HOPKINS    CLOUDY    46  44  93 N6        29.94F
CLE-LAKEFRONT  FAIR      46  43  89 N6        29.92F
CUY CO. ARPT   NOT AVBL
LORAIN-ELYRIA  CLOUDY    45  42  89 NW3       29.93S FOG
ASHTABULA      FOG       41  41 100 N3        29.93S VSB 3/4
AKRON-CANTON   CLOUDY    43  39  86 N6        29.91S
WOOSTER        CLOUDY    43  41  93 N5        29.92S
MANSFIELD      CLOUDY    44  40  85 CALM      29.92R
YOUNGSTOWN     FOG       40  40 100 N5        29.90S VSB 1/8
$$

OHZ042-051>053-060>062-070>072-077>081-031000-
  SOUTHWEST OHIO

CITY           SKY/WX    TMP DP  RH WIND       PRES   REMARKS
CINC-COVINGTON CLOUDY    54  52  93 NW5       29.90S
CINC-LUNKEN    CLOUDY    54  51  90 NE5       29.91S
HAMILTON       CLOUDY    54  50  86 E3        29.92R
DAYTON         CLOUDY    49  45  86 N7        29.92S
WRIGHT-PAT AFB CLOUDY    50  47  90 NE7       29.91R
DAYTON GENERAL CLOUDY    50  46  86 N5        29.90S
WILMINGTON     CLOUDY    50  47  89 NE6       29.90R
$$

OHZ036-037-039>041-045>050-054>059-063>069-073>076-082>088-031000-
  CENTRAL AND SOUTHEAST OHIO

CITY           SKY/WX    TMP DP  RH WIND       PRES   REMARKS
COLUMBUS       CLOUDY    47  44  90 NE6       29.90S
OSU AIRPORT    MOCLDY    47  44  90 N6        29.90F
BOLTON FIELD   CLOUDY    48  45  90 N6        29.91S
RICKENBACK AFB CLOUDY    49  45  85 N6        29.90S
NEWARK         CLOUDY    50  43  77 VRB5      29.90S
MARION         CLOUDY    45  43  93 NE6       29.93S
LANCASTER      CLOUDY    50  46  86 N6        29.91R
ZANESVILLE     CLOUDY    51  45  79 N6        29.90R
NEW PHILLY     CLOUDY    46  42  86 N5        29.92S
$$



USA.gov is the U.S. government's official web portal to all federal, state and local government web resources and services.